STARLINK-30329 (57635 NORAD) Tracking and Keplerian Element Data

This shows tracking and keplerian element data for the satellite.

Feedback or suggestion? Click here.




ElementValue
Catalog57635
NameSTARLINK-30329
Epoch Orbit2377
Epoch Day12.56166386
Epoch Year2024
RAAN51.9802
Inclination43.0032
Eccentricity0.0001066
Argument of Perigee254.6703
Mean Anonmoly105.4021
Mean Motion15.02536465
Decay Rate2.617E-05
L11 57635U 23122D 24012.56166386 .00002617 00000+0 20873-3 0 9994
L22 57635 43.0032 51.9802 0001066 254.6703 105.4021 15.02536465 23774



Live tracking and technical data element details for STARLINK-30329 (NORAD 57635). STARLINK-30329 can be tracked NOW for your location showing map with azimuth and elevation plus other details from your city location.







IsCatalogInMostPopularTable: catalog: 57635, numindb: 27
Update: records affected: 1



GetName: 57635 STARLINK-30329

Hit Count: updated at: Thu, 29 Feb 2024 13:03:42 GMT